QPF
0.00 0.00 0.02 0.08 0.15 0.20 0.22 0.10 0.05 0.07 0.05 0.04 0.05 0.04 0.03 0.04 0.06 0.13 0.09 0.01 0.00 0.00 0.00 0.00 0.00 0.00 0.00 0.00 0.00 0.00 0.00 0.00 0.00 0.00 0.00 0.00 0.00 0.00 0.00 0.01 0.01 0.01 0.01 0.01 0.01 0.01 0.01 0.01 0.02
0.00 0.01 0.03 0.08 0.18 0.21 0.13 0.07 0.04 0.03 0.05 0.06 0.04 0.03 0.04 0.03 0.03 0.03 0.04 0.02 0.01 0.00 0.00 0.00 0.00 0.00 0.00 0.00 0.00 0.00 0.00 0.00 0.00 0.00 0.00 0.00 0.00 0.01 0.01 0.01 0.01 0.01 0.00 0.00 0.00 0.00 0.01 0.01 0.02
0.00 0.01 0.03 0.07 0.13 0.16 0.07 0.03 0.02 0.02 0.07 0.10 0.04 0.07 0.04 0.03 0.05 0.03 0.04 0.03 0.01 0.00 0.00 0.00 0.00 0.00 0.00 0.00 0.00 0.00 0.01 0.00 0.00 0.00 0.01 0.00 0.00 0.01 0.01 0.01 0.01 0.01 0.01 0.00 0.00 0.00 0.00 0.01 0.02
0.00 0.02 0.05 0.09 0.06 0.03 0.03 0.01 0.01 0.02 0.05 0.10 0.09 0.08 0.05 0.05 0.04 0.03 0.05 0.05 0.01 0.00 0.00 0.00 0.00 0.00 0.00 0.00 0.00 0.01 0.00 0.00 0.00 0.00 0.01 0.01 0.00 0.01 0.01 0.01 0.01 0.00 0.00 0.00 0.00 0.00 0.00 0.01 0.02
0.00 0.02 0.06 0.07 0.03 0.01 0.03 0.01 0.01 0.01 0.05 0.10 0.12 0.12 0.09 0.08 0.08 0.07 0.06 0.05 0.02 0.00 0.00 0.00 0.00 0.00 0.00 0.00 0.00 0.00 0.00 0.00 0.00 0.00 0.00 0.01 0.01 0.01 0.00 0.00 0.00 0.00 0.00 0.00 0.00 0.00 0.00 0.00 0.01
0.00 0.02 0.04 0.03 0.01 0.00 0.01 0.00 0.00 0.01 0.06 0.10 0.12 0.17 0.18 0.14 0.17 0.15 0.08 0.07 0.04 0.01 0.00 0.00 0.00 0.00 0.00 0.00 0.00 0.00 0.00 0.00 0.00 0.00 0.00 0.01 0.00 0.01 0.01 0.00 0.00 0.00 0.00 0.00 0.00 0.00 0.00 0.00 0.01
0.00 0.01 0.01 0.01 0.01 0.00 0.00 0.00 0.00 0.01 0.06 0.10 0.08 0.18 0.28 0.31 0.21 0.17 0.12 0.08 0.05 0.02 0.00 0.00 0.00 0.00 0.00 0.01 0.00 0.01 0.01 0.00 0.00 0.00 0.00 0.00 0.01 0.01 0.01 0.00 0.00 0.00 0.00 0.00 0.00 0.00 0.00 0.00 0.01
0.00 0.00 0.00 0.00 0.00 0.00 0.00 0.00 0.00 0.00 0.03 0.07 0.06 0.14 0.26 0.28 0.16 0.18 0.22 0.16 0.11 0.06 0.01 0.00 0.00 0.00 0.00 0.00 0.01 0.01 0.01 0.00 0.00 0.00 0.00 0.00 0.01 0.02 0.01 0.00 0.01 0.00 0.00 0.00 0.00 0.00 0.00 0.00 0.01
0.00 0.00 0.00 0.00 0.00 0.00 0.00 0.00 0.00 0.00 0.01 0.05 0.09 0.15 0.17 0.20 0.18 0.20 0.27 0.24 0.22 0.19 0.11 0.03 0.01 0.00 0.00 0.00 0.00 0.00 0.01 0.00 0.00 0.00 0.01 0.01 0.02 0.02 0.02 0.01 0.02 0.01 0.00 0.00 0.00 0.00 0.00 0.00 0.01
0.00 0.00 0.00 0.00 0.00 0.00 0.00 0.00 0.00 0.01 0.02 0.10 0.11 0.16 0.29 0.29 0.13 0.15 0.25 0.26 0.29 0.38 0.29 0.09 0.03 0.01 0.01 0.00 0.00 0.01 0.01 0.01 0.00 0.00 0.01 0.02 0.03 0.03 0.03 0.03 0.04 0.03 0.01 0.01 0.01 0.01 0.01 0.01 0.02
0.00 0.00 0.00 0.00 0.00 0.00 0.00 0.00 0.00 0.01 0.02 0.10 0.11 0.18 0.30 0.26 0.17 0.12 0.15 0.24 0.26 0.32 0.33 0.16 0.09 0.05 0.01 0.01 0.01 0.01 0.01 0.01 0.02 0.01 0.01 0.02 0.04 0.03 0.03 0.03 0.03 0.03 0.02 0.01 0.01 0.02 0.01 0.03 0.04
0.00 0.00 0.00 0.00 0.00 0.00 0.00 0.00 0.00 0.01 0.02 0.05 0.06 0.12 0.24 0.17 0.15 0.14 0.15 0.21 0.28 0.24 0.31 0.25 0.14 0.07 0.03 0.02 0.01 0.01 0.02 0.02 0.03 0.02 0.01 0.02 0.02 0.03 0.03 0.02 0.02 0.03 0.02 0.02 0.02 0.02 0.02 0.03 0.04
0.00 0.00 0.00 0.00 0.00 0.00 0.00 0.01 0.01 0.01 0.03 0.06 0.07 0.07 0.14 0.20 0.23 0.28 0.27 0.35 0.37 0.35 0.37 0.39 0.24 0.13 0.07 0.04 0.03 0.02 0.02 0.02 0.03 0.02 0.01 0.02 0.02 0.02 0.02 0.02 0.02 0.03 0.02 0.02 0.02 0.02 0.03 0.02 0.03
0.00 0.00 0.00 0.00 0.00 0.00 0.00 0.00 0.01 0.03 0.04 0.07 0.15 0.14 0.19 0.31 0.34 0.49 0.54 0.62 0.58 0.48 0.58 0.59 0.39 0.27 0.15 0.08 0.06 0.04 0.02 0.02 0.03 0.03 0.02 0.03 0.02 0.02 0.01 0.01 0.02 0.03 0.02 0.02 0.02 0.01 0.02 0.03 0.03
0.00 0.01 0.00 0.01 0.00 0.01 0.01 0.01 0.01 0.02 0.02 0.04 0.11 0.17 0.14 0.22 0.25 0.31 0.49 0.57 0.62 0.45 0.46 0.53 0.46 0.42 0.27 0.13 0.09 0.06 0.04 0.03 0.04 0.04 0.04 0.03 0.04 0.02 0.01 0.01 0.01 0.01 0.01 0.01 0.01 0.01 0.01 0.01 0.02
0.01 0.01 0.01 0.01 0.01 0.01 0.02 0.01 0.01 0.01 0.03 0.05 0.09 0.14 0.14 0.15 0.19 0.21 0.26 0.42 0.52 0.44 0.36 0.36 0.40 0.44 0.33 0.17 0.11 0.09 0.08 0.06 0.04 0.05 0.06 0.05 0.04 0.02 0.02 0.01 0.01 0.01 0.01 0.01 0.01 0.01 0.00 0.00 0.01
0.01 0.01 0.01 0.02 0.02 0.02 0.01 0.01 0.01 0.03 0.04 0.05 0.09 0.13 0.12 0.11 0.19 0.23 0.23 0.37 0.50 0.43 0.43 0.38 0.41 0.47 0.34 0.21 0.17 0.16 0.09 0.06 0.05 0.06 0.06 0.06 0.04 0.02 0.02 0.01 0.01 0.02 0.02 0.02 0.01 0.01 0.00 0.01 0.00
0.00 0.01 0.01 0.02 0.02 0.02 0.02 0.01 0.01 0.02 0.04 0.03 0.05 0.09 0.10 0.11 0.15 0.25 0.26 0.33 0.59 0.55 0.51 0.40 0.33 0.46 0.41 0.23 0.20 0.18 0.11 0.09 0.09 0.05 0.04 0.03 0.03 0.02 0.01 0.00 0.01 0.01 0.01 0.01 0.01 0.01 0.00 0.00 0.00
0.01 0.01 0.01 0.01 0.02 0.02 0.02 0.01 0.01 0.02 0.03 0.03 0.04 0.06 0.08 0.12 0.15 0.23 0.29 0.32 0.42 0.52 0.47 0.44 0.37 0.35 0.37 0.24 0.16 0.17 0.14 0.10 0.09 0.06 0.04 0.03 0.03 0.02 0.01 0.01 0.01 0.01 0.01 0.01 0.00 0.01 0.01 0.00 0.00
0.00 0.01 0.00 0.01 0.01 0.02 0.02 0.02 0.02 0.03 0.03 0.03 0.04 0.06 0.06 0.11 0.17 0.25 0.32 0.37 0.42 0.49 0.37 0.27 0.30 0.28 0.22 0.20 0.15 0.15 0.13 0.08 0.07 0.06 0.04 0.03 0.03 0.02 0.01 0.00 0.01 0.01 0.01 0.00 0.00 0.01 0.01 0.00 0.00
0.00 0.00 0.00 0.00 0.01 0.02 0.03 0.03 0.03 0.03 0.04 0.02 0.04 0.07 0.09 0.12 0.17 0.18 0.26 0.38 0.42 0.43 0.32 0.20 0.18 0.21 0.17 0.15 0.13 0.15 0.13 0.08 0.07 0.07 0.04 0.02 0.02 0.01 0.00 0.00 0.00 0.00 0.00 0.00 0.00 0.00 0.00 0.00 0.00
0.00 0.00 0.00 0.00 0.01 0.02 0.04 0.05 0.05 0.04 0.03 0.02 0.03 0.04 0.07 0.09 0.11 0.09 0.16 0.31 0.30 0.28 0.25 0.18 0.16 0.17 0.17 0.18 0.13 0.12 0.09 0.06 0.07 0.05 0.04 0.03 0.02 0.01 0.01 0.00 0.00 0.00 0.00 0.00 0.00 0.00 0.00 0.00 0.00
0.01 0.00 0.00 0.00 0.01 0.04 0.06 0.06 0.08 0.07 0.04 0.03 0.02 0.03 0.05 0.03 0.01 0.02 0.06 0.21 0.24 0.20 0.21 0.18 0.18 0.20 0.17 0.15 0.17 0.14 0.08 0.05 0.07 0.06 0.04 0.03 0.02 0.01 0.01 0.01 0.00 0.00 0.00 0.00 0.00 0.00 0.00 0.00 0.00
0.00 0.00 0.00 0.02 0.04 0.09 0.09 0.11 0.15 0.14 0.07 0.04 0.03 0.04 0.03 0.01 0.01 0.01 0.03 0.11 0.14 0.14 0.16 0.15 0.16 0.16 0.16 0.14 0.13 0.11 0.07 0.05 0.05 0.05 0.04 0.03 0.03 0.02 0.01 0.01 0.01 0.00 0.00 0.00 0.00 0.00 0.00 0.00 0.00
0.00 0.00 0.01 0.03 0.06 0.12 0.10 0.13 0.14 0.07 0.03 0.02 0.02 0.02 0.01 0.01 0.01 0.00 0.01 0.03 0.05 0.08 0.09 0.10 0.12 0.12 0.11 0.12 0.12 0.08 0.05 0.04 0.04 0.04 0.03 0.03 0.03 0.02 0.01 0.01 0.01 0.00 0.00 0.00 0.00 0.00 0.00 0.00 0.00
0.00 0.01 0.01 0.04 0.06 0.12 0.15 0.14 0.09 0.05 0.03 0.02 0.02 0.02 0.01 0.01 0.00 0.00 0.00 0.01 0.03 0.03 0.04 0.05 0.07 0.08 0.09 0.09 0.08 0.06 0.04 0.04 0.04 0.04 0.03 0.03 0.02 0.01 0.02 0.01 0.00 0.01 0.01 0.01 0.00 0.00 0.00 0.00 0.00
0.00 0.01 0.01 0.03 0.04 0.08 0.14 0.14 0.10 0.06 0.05 0.05 0.04 0.02 0.01 0.01 0.00 0.00 0.00 0.01 0.01 0.02 0.03 0.03 0.05 0.05 0.07 0.08 0.06 0.05 0.05 0.03 0.02 0.02 0.03 0.02 0.02 0.01 0.01 0.01 0.01 0.01 0.01 0.01 0.00 0.00 0.00 0.00 0.00
0.01 0.01 0.02 0.02 0.04 0.08 0.15 0.18 0.14 0.07 0.09 0.08 0.07 0.04 0.02 0.01 0.00 0.00 0.00 0.00 0.00 0.00 0.02 0.03 0.03 0.04 0.05 0.05 0.04 0.03 0.04 0.03 0.02 0.01 0.02 0.02 0.03 0.02 0.02 0.01 0.00 0.01 0.01 0.01 0.00 0.00 0.00 0.00 0.00
0.02 0.02 0.03 0.03 0.03 0.07 0.12 0.10 0.09 0.08 0.07 0.06 0.07 0.05 0.02 0.01 0.01 0.00 0.00 0.00 0.00 0.00 0.01 0.01 0.02 0.02 0.02 0.03 0.03 0.03 0.03 0.03 0.03 0.03 0.03 0.03 0.03 0.02 0.01 0.01 0.01 0.01 0.01 0.01 0.01 0.00 0.00 0.00 0.00
0.02 0.03 0.04 0.04 0.04 0.05 0.08 0.07 0.07 0.07 0.05 0.07 0.07 0.07 0.05 0.03 0.02 0.01 0.01 0.01 0.01 0.01 0.01 0.01 0.01 0.01 0.02 0.02 0.02 0.02 0.05 0.06 0.05 0.04 0.04 0.03 0.03 0.02 0.02 0.01 0.01 0.01 0.01 0.01 0.01 0.01 0.01 0.01 0.00
MSLP
1010.40 1011.39 1012.42 1013.29 1013.86 1014.04 1013.82 1013.29 1012.60 1011.91 1011.38 1011.12 1011.14 1011.39 1011.77 1012.15 1012.41 1012.48 1012.37 1012.13 1011.87 1011.69 1011.68 1011.88 1012.28 1012.81 1013.39 1013.92 1014.33 1014.60 1014.74 1014.79 1014.81 1014.87 1015.00 1015.21 1015.47 1015.75 1015.99 1016.18 1016.29 1016.33 1016.32 1016.30 1016.28 1016.29 1016.33 1016.39 1016.45
1011.03 1012.14 1013.15 1013.88 1014.22 1014.10 1013.58 1012.78 1011.89 1011.10 1010.56 1010.33 1010.42 1010.74 1011.18 1011.58 1011.84 1011.91 1011.80 1011.59 1011.38 1011.28 1011.35 1011.64 1012.12 1012.71 1013.32 1013.86 1014.28 1014.56 1014.72 1014.81 1014.89 1015.01 1015.19 1015.43 1015.71 1015.97 1016.19 1016.34 1016.42 1016.44 1016.43 1016.41 1016.42 1016.44 1016.50 1016.56 1016.62
1011.72 1012.87 1013.79 1014.34 1014.41 1014.01 1013.23 1012.24 1011.24 1010.43 1009.95 1009.83 1010.03 1010.46 1010.95 1011.38 1011.64 1011.68 1011.54 1011.32 1011.13 1011.06 1011.18 1011.51 1012.02 1012.62 1013.22 1013.76 1014.17 1014.46 1014.64 1014.78 1014.92 1015.10 1015.33 1015.60 1015.88 1016.13 1016.32 1016.44 1016.49 1016.51 1016.50 1016.51 1016.54 1016.60 1016.68 1016.75 1016.80
1012.36 1013.46 1014.23 1014.55 1014.37 1013.72 1012.75 1011.67 1010.67 1009.95 1009.60 1009.65 1010.00 1010.54 1011.10 1011.54 1011.77 1011.76 1011.59 1011.34 1011.13 1011.07 1011.20 1011.53 1012.03 1012.60 1013.17 1013.66 1014.04 1014.32 1014.52 1014.70 1014.89 1015.13 1015.41 1015.70 1015.99 1016.22 1016.39 1016.49 1016.53 1016.55 1016.58 1016.62 1016.70 1016.79 1016.89 1016.97 1017.03
1012.85 1013.81 1014.38 1014.46 1014.04 1013.22 1012.16 1011.07 1010.18 1009.63 1009.49 1009.73 1010.25 1010.90 1011.50 1011.93 1012.12 1012.07 1011.85 1011.57 1011.36 1011.29 1011.42 1011.74 1012.20 1012.71 1013.21 1013.63 1013.96 1014.21 1014.41 1014.61 1014.85 1015.12 1015.44 1015.76 1016.04 1016.27 1016.42 1016.51 1016.56 1016.60 1016.66 1016.76 1016.89 1017.02 1017.15 1017.24 1017.29
1013.13 1013.88 1014.20 1014.04 1013.43 1012.50 1011.44 1010.46 1009.74 1009.42 1009.51 1009.96 1010.63 1011.36 1011.98 1012.38 1012.52 1012.42 1012.17 1011.89 1011.69 1011.65 1011.79 1012.10 1012.52 1012.97 1013.38 1013.72 1013.97 1014.17 1014.35 1014.56 1014.82 1015.13 1015.47 1015.80 1016.09 1016.31 1016.45 1016.54 1016.60 1016.67 1016.78 1016.93 1017.10 1017.28 1017.43 1017.53 1017.57
1013.15 1013.65 1013.71 1013.33 1012.58 1011.62 1010.64 1009.82 1009.33 1009.26 1009.58 1010.20 1010.97 1011.72 1012.32 1012.68 1012.77 1012.64 1012.40 1012.16 1012.01 1012.03 1012.22 1012.55 1012.94 1013.33 1013.66 1013.91 1014.09 1014.23 1014.38 1014.59 1014.86 1015.19 1015.54 1015.87 1016.16 1016.36 1016.50 1016.58 1016.66 1016.76 1016.91 1017.10 1017.32 1017.53 1017.70 1017.80 1017.84
1012.94 1013.17 1012.99 1012.43 1011.60 1010.67 1009.81 1009.19 1008.93 1009.08 1009.58 1010.31 1011.12 1011.85 1012.38 1012.67 1012.71 1012.58 1012.38 1012.23 1012.20 1012.32 1012.60 1012.97 1013.37 1013.72 1013.99 1014.17 1014.28 1014.37 1014.50 1014.69 1014.97 1015.31 1015.67 1016.00 1016.27 1016.46 1016.58 1016.66 1016.74 1016.85 1017.03 1017.25 1017.50 1017.73 1017.91 1018.02 1018.05
1012.55 1012.54 1012.15 1011.47 1010.61 1009.75 1009.03 1008.61 1008.56 1008.87 1009.47 1010.23 1011.00 1011.65 1012.09 1012.30 1012.30 1012.20 1012.08 1012.05 1012.17 1012.44 1012.83 1013.27 1013.70 1014.04 1014.27 1014.40 1014.47 1014.54 1014.65 1014.85 1015.14 1015.49 1015.85 1016.17 1016.43 1016.59 1016.69 1016.75 1016.82 1016.94 1017.13 1017.36 1017.63 1017.87 1018.06 1018.16 1018.19
1012.07 1011.86 1011.33 1010.58 1009.74 1008.96 1008.40 1008.14 1008.23 1008.63 1009.25 1009.96 1010.63 1011.15 1011.47 1011.59 1011.58 1011.52 1011.51 1011.63 1011.91 1012.33 1012.85 1013.38 1013.84 1014.20 1014.42 1014.53 1014.59 1014.66 1014.79 1015.01 1015.32 1015.69 1016.05 1016.37 1016.60 1016.74 1016.81 1016.85 1016.91 1017.02 1017.20 1017.43 1017.70 1017.94 1018.13 1018.23 1018.26
1011.58 1011.25 1010.64 1009.87 1009.08 1008.41 1007.97 1007.83 1007.99 1008.40 1008.96 1009.55 1010.07 1010.44 1010.63 1010.69 1010.67 1010.68 1010.79 1011.05 1011.48 1012.04 1012.66 1013.26 1013.76 1014.13 1014.36 1014.49 1014.57 1014.67 1014.85 1015.11 1015.46 1015.85 1016.22 1016.54 1016.75 1016.87 1016.92 1016.94 1016.98 1017.07 1017.24 1017.47 1017.73 1017.97 1018.16 1018.26 1018.29
1011.18 1010.78 1010.14 1009.41 1008.69 1008.12 1007.77 1007.69 1007.86 1008.22 1008.66 1009.10 1009.44 1009.66 1009.75 1009.75 1009.76 1009.83 1010.05 1010.44 1010.99 1011.63 1012.32 1012.95 1013.47 1013.84 1014.09 1014.25 1014.38 1014.54 1014.78 1015.11 1015.51 1015.93 1016.32 1016.64 1016.85 1016.95 1016.99 1016.99 1017.02 1017.11 1017.28 1017.50 1017.75 1017.99 1018.18 1018.29 1018.33
1010.91 1010.49 1009.88 1009.21 1008.57 1008.09 1007.80 1007.74 1007.86 1008.12 1008.41 1008.68 1008.87 1008.95 1008.97 1008.96 1009.00 1009.16 1009.47 1009.94 1010.54 1011.22 1011.90 1012.52 1013.01 1013.38 1013.64 1013.84 1014.03 1014.28 1014.59 1015.00 1015.45 1015.91 1016.32 1016.64 1016.85 1016.96 1016.99 1017.01 1017.05 1017.14 1017.31 1017.54 1017.79 1018.03 1018.23 1018.35 1018.40
1010.81 1010.40 1009.84 1009.24 1008.69 1008.27 1008.02 1007.93 1007.98 1008.11 1008.26 1008.37 1008.43 1008.44 1008.43 1008.45 1008.55 1008.78 1009.15 1009.66 1010.26 1010.90 1011.52 1012.07 1012.51 1012.84 1013.11 1013.35 1013.61 1013.93 1014.34 1014.81 1015.31 1015.79 1016.22 1016.54 1016.75 1016.87 1016.93 1016.97 1017.04 1017.17 1017.36 1017.61 1017.87 1018.12 1018.33 1018.46 1018.53
1010.85 1010.46 1009.96 1009.43 1008.97 1008.60 1008.36 1008.24 1008.20 1008.20 1008.21 1008.21 1008.19 1008.16 1008.17 1008.24 1008.42 1008.72 1009.13 1009.64 1010.19 1010.74 1011.25 1011.69 1012.05 1012.34 1012.61 1012.89 1013.22 1013.62 1014.09 1014.60 1015.13 1015.62 1016.04 1016.36 1016.58 1016.72 1016.81 1016.90 1017.03 1017.20 1017.44 1017.71 1017.99 1018.26 1018.47 1018.63 1018.72
1010.97 1010.61 1010.16 1009.72 1009.32 1009.01 1008.77 1008.61 1008.48 1008.37 1008.27 1008.18 1008.12 1008.10 1008.15 1008.31 1008.57 1008.93 1009.37 1009.84 1010.31 1010.75 1011.13 1011.45 1011.71 1011.97 1012.24 1012.56 1012.95 1013.41 1013.93 1014.47 1014.99 1015.46 1015.84 1016.14 1016.35 1016.51 1016.65 1016.80 1016.99 1017.23 1017.52 1017.82 1018.13 1018.42 1018.65 1018.82 1018.93
1011.11 1010.76 1010.39 1010.03 1009.72 1009.46 1009.24 1009.03 1008.83 1008.62 1008.43 1008.27 1008.18 1008.19 1008.31 1008.55 1008.89 1009.30 1009.75 1010.18 1010.56 1010.87 1011.13 1011.34 1011.54 1011.76 1012.05 1012.42 1012.86 1013.37 1013.91 1014.45 1014.93 1015.34 1015.67 1015.92 1016.12 1016.29 1016.47 1016.69 1016.95 1017.25 1017.59 1017.94 1018.27 1018.56 1018.80 1019.00 1019.14
1011.19 1010.88 1010.59 1010.34 1010.14 1009.95 1009.76 1009.53 1009.26 1008.96 1008.68 1008.46 1008.35 1008.37 1008.54 1008.85 1009.25 1009.70 1010.14 1010.52 1010.82 1011.04 1011.20 1011.33 1011.49 1011.73 1012.05 1012.47 1012.97 1013.52 1014.06 1014.56 1014.99 1015.32 1015.57 1015.76 1015.92 1016.09 1016.30 1016.57 1016.89 1017.26 1017.64 1018.01 1018.36 1018.66 1018.91 1019.12 1019.29
1011.14 1010.91 1010.75 1010.65 1010.59 1010.51 1010.37 1010.13 1009.81 1009.42 1009.04 1008.74 1008.57 1008.58 1008.76 1009.10 1009.53 1010.00 1010.43 1010.77 1011.01 1011.17 1011.27 1011.37 1011.53 1011.80 1012.18 1012.66 1013.22 1013.80 1014.34 1014.79 1015.14 1015.37 1015.53 1015.64 1015.76 1015.92 1016.15 1016.46 1016.83 1017.23 1017.65 1018.04 1018.39 1018.68 1018.94 1019.17 1019.37
1010.94 1010.84 1010.87 1010.98 1011.12 1011.18 1011.12 1010.89 1010.51 1010.03 1009.53 1009.11 1008.84 1008.78 1008.92 1009.24 1009.67 1010.13 1010.54 1010.86 1011.07 1011.19 1011.28 1011.39 1011.59 1011.91 1012.36 1012.92 1013.53 1014.13 1014.65 1015.06 1015.33 1015.47 1015.54 1015.58 1015.64 1015.78 1016.02 1016.35 1016.75 1017.18 1017.61 1018.00 1018.34 1018.62 1018.88 1019.12 1019.37
1010.60 1010.70 1010.99 1011.36 1011.73 1011.98 1012.02 1011.82 1011.39 1010.79 1010.15 1009.57 1009.16 1008.98 1009.03 1009.29 1009.68 1010.10 1010.49 1010.79 1010.99 1011.11 1011.21 1011.35 1011.61 1011.99 1012.52 1013.14 1013.79 1014.41 1014.92 1015.28 1015.48 1015.55 1015.55 1015.53 1015.55 1015.67 1015.91 1016.25 1016.65 1017.09 1017.51 1017.88 1018.21 1018.48 1018.74 1019.00 1019.28
1010.16 1010.53 1011.12 1011.80 1012.44 1012.89 1013.05 1012.88 1012.40 1011.68 1010.87 1010.12 1009.53 1009.19 1009.11 1009.27 1009.60 1009.98 1010.35 1010.64 1010.84 1010.97 1011.10 1011.28 1011.58 1012.02 1012.59 1013.25 1013.93 1014.55 1015.05 1015.38 1015.54 1015.56 1015.51 1015.45 1015.46 1015.56 1015.79 1016.13 1016.53 1016.96 1017.36 1017.71 1018.01 1018.28 1018.53 1018.81 1019.14
1009.70 1010.36 1011.28 1012.28 1013.19 1013.85 1014.13 1013.99 1013.45 1012.62 1011.65 1010.71 1009.94 1009.43 1009.22 1009.27 1009.52 1009.86 1010.21 1010.50 1010.71 1010.86 1011.01 1011.21 1011.53 1011.99 1012.58 1013.25 1013.92 1014.53 1015.01 1015.32 1015.45 1015.46 1015.39 1015.33 1015.33 1015.43 1015.66 1015.99 1016.38 1016.78 1017.16 1017.49 1017.78 1018.03 1018.29 1018.59 1018.95
1009.29 1010.24 1011.46 1012.75 1013.90 1014.74 1015.12 1015.01 1014.42 1013.49 1012.38 1011.28 1010.35 1009.70 1009.37 1009.34 1009.53 1009.84 1010.18 1010.47 1010.69 1010.86 1011.01 1011.21 1011.52 1011.95 1012.51 1013.14 1013.77 1014.35 1014.80 1015.10 1015.23 1015.24 1015.19 1015.14 1015.16 1015.28 1015.51 1015.83 1016.20 1016.58 1016.94 1017.25 1017.52 1017.77 1018.04 1018.36 1018.75
1008.99 1010.18 1011.63 1013.14 1014.47 1015.42 1015.88 1015.77 1015.15 1014.14 1012.93 1011.73 1010.70 1009.96 1009.56 1009.48 1009.65 1009.96 1010.30 1010.61 1010.85 1011.01 1011.15 1011.32 1011.58 1011.94 1012.42 1012.97 1013.54 1014.06 1014.47 1014.75 1014.89 1014.93 1014.92 1014.91 1014.96 1015.10 1015.33 1015.65 1016.00 1016.37 1016.70 1017.00 1017.26 1017.52 1017.80 1018.14 1018.56
1008.83 1010.17 1011.75 1013.36 1014.77 1015.78 1016.24 1016.13 1015.49 1014.44 1013.20 1011.96 1010.91 1010.15 1009.75 1009.68 1009.86 1010.20 1010.57 1010.91 1011.15 1011.32 1011.43 1011.55 1011.72 1011.99 1012.36 1012.80 1013.27 1013.71 1014.08 1014.35 1014.50 1014.58 1014.61 1014.65 1014.74 1014.91 1015.15 1015.47 1015.81 1016.16 1016.48 1016.77 1017.04 1017.30 1017.60 1017.96 1018.39
1008.81 1010.17 1011.76 1013.36 1014.73 1015.70 1016.13 1015.99 1015.34 1014.31 1013.10 1011.90 1010.90 1010.20 1009.86 1009.85 1010.09 1010.48 1010.90 1011.27 1011.54 1011.69 1011.78 1011.83 1011.92 1012.08 1012.33 1012.65 1013.01 1013.38 1013.70 1013.95 1014.12 1014.23 1014.31 1014.41 1014.54 1014.74 1015.00 1015.31 1015.65 1015.98 1016.30 1016.59 1016.86 1017.14 1017.44 1017.81 1018.23
1008.89 1010.16 1011.63 1013.08 1014.32 1015.16 1015.51 1015.33 1014.69 1013.71 1012.59 1011.51 1010.64 1010.06 1009.83 1009.92 1010.25 1010.70 1011.17 1011.57 1011.86 1012.01 1012.07 1012.08 1012.09 1012.15 1012.30 1012.51 1012.78 1013.07 1013.35 1013.59 1013.78 1013.93 1014.06 1014.20 1014.38 1014.61 1014.88 1015.20 1015.53 1015.86 1016.17 1016.46 1016.74 1017.02 1017.33 1017.69 1018.10
1009.02 1010.10 1011.33 1012.53 1013.54 1014.19 1014.42 1014.19 1013.58 1012.70 1011.72 1010.82 1010.11 1009.70 1009.61 1009.81 1010.22 1010.73 1011.24 1011.67 1011.97 1012.13 1012.18 1012.16 1012.13 1012.14 1012.21 1012.36 1012.57 1012.81 1013.06 1013.29 1013.50 1013.68 1013.86 1014.05 1014.27 1014.52 1014.82 1015.14 1015.47 1015.80 1016.11 1016.40 1016.68 1016.96 1017.26 1017.59 1017.95
1009.15 1009.96 1010.88 1011.77 1012.48 1012.92 1013.00 1012.73 1012.17 1011.41 1010.61 1009.90 1009.40 1009.16 1009.21 1009.50 1009.97 1010.51 1011.04 1011.47 1011.78 1011.95 1012.01 1011.99 1011.97 1011.97 1012.02 1012.15 1012.33 1012.55 1012.79 1013.03 1013.26 1013.48 1013.70 1013.93 1014.19 1014.48 1014.79 1015.12 1015.46 1015.79 1016.09 1016.38 1016.65 1016.91 1017.18 1017.47 1017.78
Thickness
5820 5817 5814 5802 5780 5763 5760 5777 5791 5795 5800 5811 5815 5810 5802 5796 5788 5780 5803 5809 5805 5799 5794 5791 5789 5787 5785 5783 5781 5779 5778 5777 5775 5773 5771 5770 5768 5766 5764 5762 5761 5759 5757 5756 5754 5753 5752 5750 5749
5821 5817 5807 5789 5767 5750 5762 5788 5793 5801 5809 5816 5815 5811 5802 5798 5804 5802 5804 5806 5804 5799 5794 5791 5788 5786 5784 5782 5780 5778 5777 5775 5774 5772 5770 5769 5767 5765 5763 5761 5760 5758 5756 5754 5753 5752 5750 5748 5747
5822 5818 5794 5776 5764 5758 5771 5795 5801 5811 5818 5817 5808 5809 5801 5795 5802 5802 5804 5804 5800 5796 5792 5790 5787 5785 5783 5781 5779 5777 5776 5774 5772 5771 5769 5768 5766 5764 5762 5760 5758 5756 5754 5753 5752 5750 5748 5747 5745
5817 5803 5788 5770 5765 5782 5793 5805 5810 5809 5810 5813 5805 5794 5798 5805 5806 5805 5803 5800 5795 5792 5789 5787 5785 5783 5781 5779 5778 5776 5774 5773 5771 5770 5768 5767 5765 5763 5761 5759 5757 5755 5753 5751 5750 5748 5747 5745 5744
5812 5791 5772 5763 5774 5796 5811 5817 5818 5808 5805 5806 5803 5786 5786 5800 5806 5802 5797 5794 5791 5788 5786 5785 5783 5781 5779 5777 5776 5775 5773 5772 5770 5769 5767 5766 5764 5762 5760 5757 5755 5753 5752 5750 5748 5747 5745 5744 5743
5796 5784 5763 5759 5781 5804 5815 5822 5820 5810 5803 5803 5799 5784 5779 5794 5796 5793 5792 5788 5787 5785 5783 5782 5780 5779 5777 5775 5774 5773 5772 5770 5769 5767 5765 5764 5762 5760 5758 5756 5754 5752 5750 5748 5747 5745 5744 5742 5742
5789 5776 5766 5773 5784 5798 5815 5826 5819 5808 5801 5802 5802 5781 5777 5787 5792 5792 5788 5783 5781 5780 5779 5778 5776 5776 5775 5773 5772 5771 5770 5769 5767 5766 5764 5763 5761 5759 5757 5755 5753 5750 5748 5746 5745 5743 5742 5741 5740
5803 5781 5772 5776 5785 5795 5819 5823 5819 5811 5803 5809 5804 5782 5774 5785 5790 5787 5783 5778 5774 5773 5774 5775 5773 5773 5773 5771 5769 5769 5768 5767 5765 5764 5763 5761 5759 5757 5755 5753 5751 5749 5747 5745 5743 5741 5740 5739 5739
5811 5774 5763 5777 5789 5800 5820 5816 5814 5818 5808 5803 5802 5796 5793 5792 5788 5779 5773 5768 5766 5767 5769 5770 5770 5770 5770 5769 5768 5766 5765 5765 5764 5762 5761 5760 5757 5756 5754 5752 5750 5748 5746 5744 5742 5740 5739 5738 5737
5797 5768 5779 5802 5809 5810 5818 5815 5810 5801 5794 5791 5792 5796 5795 5788 5782 5774 5768 5763 5761 5763 5765 5767 5766 5767 5767 5768 5766 5764 5763 5763 5762 5761 5760 5758 5756 5754 5752 5750 5748 5747 5745 5743 5741 5739 5738 5736 5735
5799 5788 5804 5815 5821 5821 5817 5814 5815 5796 5782 5788 5788 5789 5787 5781 5775 5772 5768 5766 5763 5763 5763 5764 5764 5764 5764 5765 5764 5762 5761 5761 5760 5759 5758 5756 5754 5752 5751 5749 5747 5746 5744 5742 5740 5738 5737 5735 5734
5803 5808 5816 5819 5825 5821 5817 5814 5806 5800 5795 5801 5798 5794 5785 5777 5771 5768 5766 5764 5763 5761 5762 5762 5762 5762 5762 5763 5762 5761 5760 5760 5759 5758 5757 5755 5753 5751 5750 5748 5747 5745 5743 5741 5739 5738 5736 5735 5733
5803 5808 5818 5823 5822 5822 5818 5809 5802 5797 5801 5799 5793 5786 5780 5775 5769 5766 5766 5765 5763 5760 5760 5760 5761 5761 5760 5760 5760 5759 5760 5759 5758 5757 5756 5754 5753 5751 5749 5748 5746 5745 5743 5741 5739 5737 5736 5734 5732
5807 5812 5815 5818 5819 5820 5811 5804 5798 5792 5798 5791 5784 5777 5775 5772 5767 5762 5759 5760 5760 5759 5758 5759 5758 5759 5758 5757 5758 5758 5759 5759 5758 5757 5755 5754 5753 5751 5749 5748 5746 5744 5743 5741 5739 5737 5735 5733 5732
5811 5802 5803 5810 5813 5813 5808 5790 5790 5794 5793 5784 5779 5775 5770 5768 5765 5762 5762 5758 5758 5758 5758 5758 5757 5756 5755 5755 5756 5756 5757 5757 5756 5755 5755 5754 5752 5751 5749 5748 5746 5745 5743 5741 5738 5736 5734 5732 5731
5798 5786 5777 5798 5808 5810 5795 5771 5788 5793 5786 5776 5775 5773 5767 5764 5763 5762 5762 5760 5759 5756 5756 5756 5758 5755 5754 5754 5753 5753 5755 5755 5754 5754 5753 5752 5751 5751 5749 5747 5746 5745 5743 5740 5738 5735 5732 5730 5729
5772 5762 5767 5786 5806 5804 5790 5773 5786 5790 5784 5774 5770 5766 5763 5759 5758 5758 5758 5757 5756 5755 5754 5753 5755 5753 5752 5752 5751 5751 5751 5752 5752 5751 5751 5750 5750 5750 5748 5746 5745 5744 5742 5740 5739 5735 5732 5729 5728
5755 5760 5768 5775 5797 5797 5783 5776 5782 5785 5780 5773 5768 5763 5758 5755 5755 5756 5755 5754 5752 5751 5750 5751 5751 5749 5749 5748 5746 5746 5747 5749 5750 5749 5749 5748 5748 5748 5747 5745 5745 5743 5741 5739 5737 5734 5733 5730 5728
5774 5769 5768 5783 5801 5789 5777 5773 5776 5780 5774 5768 5763 5759 5756 5752 5753 5753 5751 5749 5747 5745 5744 5746 5745 5745 5745 5744 5743 5741 5743 5745 5746 5746 5747 5747 5747 5746 5746 5744 5743 5742 5740 5738 5737 5734 5732 5729 5728
5777 5769 5771 5784 5799 5785 5771 5767 5773 5775 5772 5770 5764 5759 5754 5750 5748 5746 5746 5744 5742 5740 5741 5742 5743 5743 5743 5744 5744 5743 5743 5743 5744 5744 5744 5745 5745 5745 5744 5743 5742 5741 5739 5737 5735 5733 5730 5728 5727
5776 5773 5775 5778 5784 5779 5769 5757 5762 5769 5771 5769 5765 5761 5757 5751 5746 5743 5742 5741 5739 5738 5740 5742 5741 5740 5741 5742 5742 5741 5739 5739 5739 5740 5741 5744 5744 5744 5744 5743 5742 5740 5739 5736 5734 5733 5730 5726 5725
5767 5789 5790 5784 5765 5746 5753 5731 5752 5759 5760 5761 5759 5756 5755 5753 5747 5743 5742 5739 5738 5739 5740 5740 5740 5740 5741 5741 5740 5738 5736 5734 5737 5739 5740 5741 5743 5743 5743 5742 5741 5739 5738 5736 5735 5733 5730 5727 5723
5778 5792 5785 5776 5759 5740 5738 5728 5738 5753 5749 5754 5756 5756 5754 5752 5750 5746 5744 5742 5741 5740 5739 5739 5739 5739 5740 5740 5739 5737 5736 5736 5736 5737 5738 5738 5740 5741 5741 5741 5739 5738 5737 5735 5734 5731 5730 5727 5723
5793 5782 5769 5755 5742 5722 5727 5724 5729 5744 5750 5755 5757 5757 5754 5753 5751 5748 5745 5743 5741 5740 5739 5739 5738 5738 5739 5739 5738 5738 5737 5736 5734 5734 5735 5735 5736 5738 5739 5739 5737 5736 5735 5734 5732 5730 5728 5726 5723
5784 5756 5729 5723 5712 5713 5728 5725 5733 5758 5766 5764 5761 5759 5757 5755 5751 5748 5744 5741 5740 5740 5740 5740 5739 5737 5738 5738 5739 5739 5738 5738 5736 5735 5735 5734 5734 5734 5736 5736 5735 5734 5734 5732 5730 5727 5726 5724 5721
5773 5759 5726 5711 5707 5711 5722 5721 5744 5768 5773 5773 5770 5766 5761 5756 5754 5751 5748 5745 5744 5743 5742 5742 5740 5739 5739 5739 5740 5740 5740 5739 5738 5738 5737 5736 5735 5735 5735 5734 5733 5733 5732 5730 5728 5725 5723 5722 5720
5769 5758 5758 5731 5719 5707 5713 5729 5748 5769 5769 5768 5767 5765 5761 5758 5756 5754 5752 5749 5748 5746 5744 5744 5742 5741 5741 5741 5740 5740 5740 5740 5739 5738 5737 5736 5735 5734 5733 5732 5731 5730 5729 5727 5725 5723 5721 5719 5717
5780 5767 5746 5727 5707 5699 5706 5717 5727 5749 5755 5760 5762 5762 5762 5761 5758 5757 5755 5754 5752 5751 5748 5747 5745 5744 5743 5742 5742 5741 5740 5740 5739 5737 5736 5735 5734 5733 5731 5730 5729 5727 5726 5724 5722 5720 5718 5715 5713
5765 5757 5744 5729 5722 5702 5695 5715 5754 5751 5757 5758 5762 5764 5765 5764 5762 5760 5758 5757 5756 5754 5751 5747 5746 5745 5744 5743 5742 5741 5740 5739 5738 5737 5736 5735 5733 5731 5730 5728 5726 5724 5722 5721 5718 5716 5714 5711 5709
5766 5755 5742 5723 5717 5715 5705 5721 5768 5763 5762 5763 5764 5767 5769 5768 5767 5764 5762 5760 5757 5755 5753 5750 5748 5747 5746 5744 5742 5741 5740 5738 5736 5735 5734 5733 5732 5731 5729 5727 5724 5722 5720 5718 5715 5713 5711 5708 5705